Temperature
8 8 8 7 7 7 6 6 5 4 5 5 5 4 3 3 2 2 2 1 1 1 1 0 0 -0 -1 -1 -1 -1 -2 -2 -2 -2 -2 -2 -2 -2
8 8 8 7 7 6 6 5 5 4 4 4 4 3 3 2 2 1 1 1 1 0 0 -0 -1 -1 -1 -2 -2 -2 -2 -2 -2 -2 -3 -2 -2 -2
8 8 7 7 6 6 6 5 5 4 3 3 3 3 2 2 1 1 1 0 0 -0 -1 -1 -1 -2 -2 -2 -2 -3 -3 -3 -3 -3 -3 -3 -3 -3
8 7 7 7 6 6 5 5 4 4 3 3 3 2 2 1 1 1 0 -0 -1 -1 -1 -1 -2 -2 -2 -3 -3 -3 -3 -3 -3 -3 -3 -4 -4 -4
7 7 7 6 6 5 5 4 4 3 2 2 2 2 1 1 0 0 -0 -1 -1 -1 -2 -2 -2 -3 -3 -3 -4 -4 -4 -4 -4 -4 -4 -4 -4 -4
7 6 6 6 5 4 4 4 3 2 2 1 1 1 0 0 -1 -1 -1 -1 -2 -2 -2 -3 -3 -3 -4 -4 -4 -4 -4 -4 -4 -5 -5 -5 -5 -5
6 6 5 5 4 4 3 3 2 2 1 1 0 -0 -0 -1 -2 -2 -3 -3 -3 -3 -3 -3 -4 -4 -4 -4 -4 -4 -4 -5 -5 -5 -5 -5 -5 -5
6 5 5 4 4 3 3 2 2 1 0 -0 -1 -1 -1 -2 -2 -3 -4 -4 -4 -4 -5 -4 -4 -4 -5 -5 -5 -5 -5 -5 -6 -6 -6 -6 -6 -6
5 5 4 4 3 3 2 1 1 0 -0 -1 -1 -2 -2 -3 -3 -4 -4 -5 -5 -5 -6 -5 -5 -5 -5 -5 -5 -6 -6 -6 -6 -7 -7 -6 -6 -6
5 4 4 3 3 2 1 1 0 -0 -1 -2 -2 -3 -3 -4 -4 -5 -5 -6 -6 -6 -6 -6 -6 -6 -6 -6 -6 -6 -6 -7 -7 -7 -7 -7 -7 -6
4 3 3 2 2 1 0 -0 -1 -1 -2 -2 -3 -3 -4 -5 -5 -5 -6 -6 -6 -7 -7 -7 -7 -7 -7 -6 -6 -7 -7 -7 -7 -7 -7 -7 -7 -7
3 3 2 1 1 0 -1 -1 -1 -2 -3 -3 -3 -4 -5 -5 -6 -6 -6 -7 -7 -7 -7 -8 -8 -8 -8 -7 -7 -7 -7 -7 -7 -7 -7 -7 -7 -7
2 2 1 1 -0 -1 -1 -2 -2 -3 -4 -4 -4 -5 -5 -6 -6 -7 -7 -7 -8 -8 -8 -8 -9 -9 -9 -9 -8 -7 -8 -8 -8 -7 -7 -7 -7 -7
2 1 0 -0 -1 -2 -2 -3 -3 -4 -4 -5 -5 -6 -6 -6 -7 -7 -7 -8 -8 -8 -8 -9 -9 -9 -9 -9 -9 -8 -8 -8 -8 -8 -7 -7 -7 -7
1 0 -1 -1 -2 -2 -3 -3 -4 -5 -5 -6 -6 -7 -7 -7 -7 -8 -8 -8 -8 -8 -9 -9 -9 -9 -9 -9 -9 -9 -8 -8 -8 -8 -8 -7 -7 -7
-0 -1 -1 -2 -3 -3 -4 -4 -5 -6 -6 -7 -7 -7 -8 -8 -8 -8 -8 -9 -9 -8 -9 -9 -9 -9 -9 -9 -9 -9 -9 -9 -8 -8 -8 -7 -7 -7
-1 -2 -2 -3 -4 -4 -5 -5 -6 -6 -7 -7 -8 -8 -8 -8 -9 -9 -9 -9 -9 -9 -9 -9 -9 -9 -9 -9 -9 -9 -9 -9 -9 -8 -8 -8 -7 -7
-2 -3 -3 -4 -5 -5 -6 -6 -7 -7 -8 -8 -8 -9 -9 -9 -9 -9 -10 -10 -10 -10 -10 -10 -10 -9 -9 -9 -9 -9 -9 -9 -9 -9 -9 -8 -7 -7
-3 -4 -4 -5 -6 -6 -7 -7 -8 -8 -8 -9 -9 -9 -10 -10 -10 -10 -10 -10 -10 -10 -10 -10 -10 -10 -10 -10 -9 -9 -9 -9 -9 -8 -8 -8 -8 -7
-4 -5 -5 -6 -7 -7 -8 -8 -9 -9 -9 -10 -10 -10 -10 -10 -10 -10 -10 -11 -11 -11 -11 -11 -11 -11 -11 -11 -10 -9 -9 -9 -9 -9 -8 -8 -8 -7
-5 -6 -6 -7 -7 -8 -8 -9 -9 -10 -10 -10 -10 -11 -11 -11 -11 -11 -11 -11 -11 -11 -11 -11 -11 -11 -11 -11 -10 -10 -9 -9 -9 -9 -9 -8 -8 -7
-6 -6 -7 -7 -8 -9 -9 -9 -10 -10 -10 -11 -11 -11 -11 -11 -11 -11 -11 -11 -11 -11 -11 -11 -11 -11 -11 -11 -10 -10 -9 -9 -9 -9 -9 -9 -9 -9
-6 -7 -7 -8 -9 -9 -9 -10 -10 -10 -11 -11 -11 -11 -11 -12 -12 -12 -12 -12 -12 -12 -12 -11 -11 -11 -11 -11 -11 -10 -10 -9 -9 -8 -8 -8 -8 -8
Wind_Speed
8 7 5 4 4 4 4 4 4 3 4 4 3 3 6 7 9 9 10 12 15 16 16 17 18 18 19 20 20 21 21 22 22 23 24 24 24 24
6 7 5 4 4 4 4 4 4 5 4 4 5 4 5 7 10 10 12 14 15 16 18 18 19 19 20 20 21 22 22 22 23 24 24 25 25 25
7 8 7 5 5 4 4 4 4 4 5 4 3 3 3 5 9 11 13 13 14 16 18 19 19 20 20 21 22 22 23 24 24 24 25 25 25 26
9 8 7 5 6 4 4 5 4 5 5 6 4 3 5 5 6 7 10 11 13 16 18 19 20 20 21 21 22 23 23 24 24 24 25 25 26 26
9 9 8 7 6 4 5 5 4 4 5 5 5 3 4 4 5 5 6 8 12 14 17 18 19 20 21 22 22 23 24 24 23 24 24 25 25 25
8 8 8 8 8 7 6 6 5 4 4 5 5 5 5 5 4 5 6 5 6 10 14 16 18 20 20 22 22 23 23 23 23 23 24 24 24 25
6 6 6 8 9 7 5 5 5 4 4 4 5 4 4 4 5 4 6 6 6 5 6 7 10 11 15 19 21 22 23 23 23 23 23 24 24 24
6 5 5 6 7 9 9 8 7 5 5 4 5 6 7 6 5 5 5 6 5 3 3 6 5 8 10 14 19 22 22 22 22 22 23 23 23 23
7 5 4 4 6 4 7 8 8 10 9 5 6 7 6 6 5 6 6 7 7 5 4 7 5 8 10 15 21 22 21 21 21 22 23 23 23 23
6 6 5 4 4 4 4 4 5 6 8 6 6 7 7 7 7 7 7 7 7 5 5 6 5 6 7 12 19 19 18 20 21 22 23 22 22 22
4 4 4 4 6 6 4 5 5 6 8 11 12 13 14 14 11 5 4 6 8 5 4 4 4 5 5 6 12 15 18 20 21 22 21 21 21 20
2 2 4 4 5 5 3 4 6 6 4 5 7 9 9 10 12 6 4 6 7 5 3 3 3 4 5 4 4 9 13 17 20 20 20 19 19 13
3 2 2 4 5 6 5 3 7 6 3 4 4 5 4 5 5 6 5 5 6 6 3 3 3 3 4 5 4 6 6 7 11 14 16 17 18 14
3 2 3 4 5 5 5 6 9 7 1 2 3 4 4 5 5 5 7 7 8 8 8 5 4 4 5 7 7 5 5 7 7 7 8 14 15 16
2 2 2 2 2 3 5 7 5 2 2 3 4 5 4 5 4 4 5 6 7 9 9 7 5 5 5 6 7 6 6 6 5 5 6 8 7 8
2 1 1 2 2 2 3 4 2 2 3 3 4 4 4 3 4 3 3 3 4 5 6 7 7 5 5 7 8 9 7 5 6 8 8 7 7 7
3 2 1 1 1 2 2 2 2 3 3 3 3 4 4 4 4 3 3 2 3 4 5 4 6 7 7 7 6 7 7 6 7 7 7 8 8 7
3 1 0 1 1 2 3 3 3 3 3 4 4 4 4 5 5 4 3 3 4 4 4 4 4 4 4 4 7 6 5 5 6 7 6 7 8 7
2 1 1 2 2 3 3 3 3 4 3 3 4 4 4 4 4 4 4 3 4 4 4 3 3 2 4 5 5 4 4 6 7 7 6 6 8 10
1 1 2 2 2 3 3 3 4 4 3 3 4 4 4 4 4 4 4 3 4 3 4 4 3 3 3 4 5 5 8 7 6 7 7 7 7 10
1 1 2 2 2 3 3 3 4 4 4 4 4 4 4 4 4 4 4 6 4 3 4 5 5 8 4 3 5 5 6 10 10 7 7 7 6 5
1 2 2 3 3 3 3 3 4 4 4 4 4 4 4 3 4 5 4 4 4 4 5 5 5 4 1 2 5 6 6 7 10 13 10 7 4 4
2 2 3 3 3 3 3 4 4 4 4 4 4 4 3 3 3 4 4 4 4 4 4 4 3 2 2 3 4 5 7 7 6 6 6 10 12 12
Wind_Direction
180 179 179 184 178 177 171 170 173 229 266 258 258 257 251 269 281 285 287 296 304 307 307 305 305 305 305 305 305 305 304 303 303 302 301 299 299 299
175 176 183 181 179 178 180 181 182 190 238 251 242 249 265 276 284 287 286 294 301 302 303 302 301 302 303 303 303 303 302 302 301 300 299 299 298 298
174 181 190 180 183 186 181 184 193 186 231 266 252 256 259 269 283 287 288 286 287 294 299 300 300 301 301 301 302 302 301 301 300 299 299 299 298 297
183 183 192 183 190 189 189 198 203 200 211 255 270 263 257 262 267 277 282 282 280 289 294 296 298 300 300 301 302 302 301 301 300 299 298 298 298 297
182 186 188 181 198 200 201 207 210 212 211 235 264 260 266 268 277 276 274 278 282 286 291 293 295 298 301 303 303 303 303 302 300 299 298 297 297 297
180 184 185 190 199 199 206 212 209 214 218 234 257 264 263 267 263 274 285 270 277 285 285 287 292 298 300 302 304 304 303 301 300 299 300 299 299 297
178 186 191 198 204 202 206 206 199 212 224 239 256 269 269 272 266 261 277 284 275 264 271 278 287 288 291 295 299 300 300 300 300 301 301 301 299 297
180 187 195 204 217 225 234 230 216 216 227 235 255 263 270 263 264 267 277 292 291 256 255 275 271 277 281 283 291 297 300 301 302 303 304 304 303 301
178 180 192 208 218 222 246 254 252 252 251 245 248 256 266 263 267 273 267 267 272 269 267 280 267 274 278 285 295 300 301 303 305 306 306 305 305 303
177 183 193 210 216 218 219 239 251 257 262 257 242 251 253 256 250 261 270 275 268 261 250 275 275 270 280 283 292 296 302 307 309 309 307 305 305 304
172 178 189 211 241 248 228 240 259 266 270 272 274 277 283 287 288 285 282 287 292 280 230 248 275 284 279 276 283 294 302 307 310 311 310 310 309 308
164 187 210 228 250 260 233 229 258 264 262 279 284 290 292 295 297 288 267 279 289 290 242 243 276 302 299 272 274 285 294 301 309 313 313 313 312 311
179 203 229 254 266 270 268 241 268 287 263 265 274 279 283 281 280 274 256 252 269 270 262 251 269 268 269 290 285 274 277 288 302 305 309 314 316 315
188 204 225 256 271 279 284 290 298 309 320 298 289 284 285 282 278 274 271 263 255 259 267 253 254 260 276 286 291 289 291 289 292 295 301 313 316 315
172 205 242 270 289 297 301 305 314 317 299 292 288 283 274 271 276 283 285 283 281 276 274 262 251 262 262 273 285 291 304 301 295 300 305 307 303 304
106 72 31 7 4 327 314 316 314 291 292 278 284 282 284 286 286 281 284 297 300 299 292 285 273 262 265 267 275 286 291 292 305 309 307 302 299 298
119 89 62 27 342 321 314 303 302 310 308 296 293 297 297 297 298 292 277 283 281 292 304 310 303 283 259 259 275 279 288 292 293 303 310 309 302 299
99 94 100 287 282 287 292 296 294 294 292 294 294 294 297 296 299 299 289 279 283 286 291 298 319 329 327 289 243 266 283 286 299 306 302 303 304 304
88 103 258 273 274 277 278 278 281 285 286 289 291 291 295 296 297 300 300 293 290 290 291 295 306 314 317 311 300 268 279 299 305 305 298 293 296 301
104 228 259 268 273 277 281 284 287 293 292 290 287 286 289 293 296 296 294 287 291 294 300 303 292 281 269 283 292 293 295 292 297 302 302 299 289 292
260 267 267 271 275 278 280 281 281 282 283 281 281 282 285 288 293 296 293 298 300 292 297 297 289 304 288 286 295 295 295 302 302 296 299 305 306 308
260 268 271 273 274 274 277 279 281 281 282 277 278 280 278 276 284 289 288 288 286 282 283 289 303 319 319 287 293 297 302 309 315 317 309 299 299 311
269 273 276 279 277 275 274 277 278 280 278 277 279 278 277 278 280 282 282 280 285 292 301 305 316 318 292 275 287 295 302 311 317 324 318 322 320 307
Height
1515 1516 1517 1518 1518 1518 1518 1518 1517 1514 1512 1512 1512 1511 1510 1508 1505 1503 1501 1498 1496 1493 1490 1488 1485 1482 1480 1477 1474 1472 1469 1467 1464 1462 1460 1458 1455 1453
1510 1512 1513 1513 1514 1514 1514 1513 1513 1511 1508 1507 1507 1506 1505 1503 1501 1498 1495 1493 1490 1487 1485 1482 1479 1476 1473 1470 1468 1465 1463 1460 1457 1455 1453 1450 1448 1446
1505 1507 1508 1509 1509 1509 1509 1509 1508 1507 1504 1503 1502 1501 1499 1498 1495 1493 1490 1487 1484 1482 1478 1476 1473 1470 1467 1464 1461 1458 1456 1453 1450 1447 1445 1442 1440 1438
1501 1502 1503 1504 1504 1505 1505 1504 1504 1502 1500 1497 1496 1495 1494 1492 1489 1486 1484 1481 1478 1475 1472 1469 1466 1463 1460 1457 1454 1451 1448 1445 1442 1439 1437 1434 1432 1430
1496 1497 1499 1499 1500 1500 1500 1499 1499 1497 1495 1492 1490 1489 1487 1485 1482 1480 1477 1474 1472 1469 1465 1463 1460 1457 1453 1450 1447 1444 1441 1437 1434 1431 1429 1427 1424 1422
1491 1492 1494 1494 1495 1495 1495 1494 1493 1491 1490 1487 1485 1483 1481 1479 1476 1472 1469 1467 1464 1462 1459 1456 1453 1450 1447 1444 1440 1436 1433 1429 1426 1424 1421 1419 1416 1414
1486 1487 1489 1489 1490 1490 1489 1489 1487 1486 1484 1481 1479 1476 1474 1472 1469 1466 1462 1458 1456 1454 1451 1449 1446 1443 1440 1436 1433 1429 1425 1422 1419 1416 1413 1411 1408 1406
1481 1483 1484 1484 1485 1484 1484 1483 1482 1480 1478 1476 1473 1471 1468 1466 1463 1460 1456 1452 1448 1447 1443 1440 1439 1435 1432 1429 1425 1421 1418 1415 1412 1409 1406 1403 1401 1398
1476 1478 1478 1479 1479 1479 1478 1477 1476 1474 1473 1471 1467 1465 1462 1460 1457 1453 1450 1446 1442 1440 1437 1431 1431 1427 1425 1422 1418 1415 1411 1408 1405 1402 1399 1396 1394 1391
1471 1472 1473 1474 1474 1473 1472 1471 1470 1468 1467 1464 1462 1459 1456 1454 1451 1448 1444 1440 1436 1434 1431 1425 1422 1420 1417 1415 1412 1409 1406 1402 1399 1395 1392 1389 1387 1384
1466 1467 1468 1468 1468 1467 1465 1464 1462 1462 1460 1458 1455 1453 1450 1448 1445 1442 1438 1434 1429 1426 1425 1421 1416 1412 1409 1407 1406 1403 1400 1396 1392 1389 1386 1383 1380 1378
1461 1462 1462 1462 1462 1460 1459 1457 1456 1454 1453 1450 1448 1446 1443 1441 1439 1436 1432 1429 1424 1420 1418 1416 1411 1408 1402 1399 1399 1397 1394 1390 1387 1383 1380 1377 1375 1372
1456 1457 1457 1456 1456 1455 1453 1452 1450 1448 1445 1443 1440 1438 1436 1434 1432 1429 1427 1424 1420 1416 1414 1411 1407 1404 1401 1395 1392 1391 1388 1385 1381 1378 1376 1373 1370 1368
1451 1451 1451 1451 1450 1449 1448 1446 1444 1442 1439 1437 1434 1432 1430 1427 1425 1423 1420 1418 1415 1412 1409 1407 1403 1400 1397 1392 1388 1385 1384 1381 1377 1374 1372 1369 1367 1364
1446 1446 1446 1445 1444 1443 1442 1440 1438 1436 1433 1431 1428 1426 1424 1422 1419 1416 1414 1412 1409 1407 1405 1402 1399 1396 1393 1390 1385 1382 1379 1376 1374 1371 1368 1365 1362 1359
1441 1441 1440 1440 1439 1437 1436 1434 1432 1430 1428 1425 1423 1421 1419 1416 1414 1411 1409 1406 1404 1402 1401 1398 1395 1392 1389 1386 1383 1379 1377 1374 1371 1368 1365 1362 1359 1357
1436 1436 1435 1434 1433 1432 1430 1428 1427 1425 1423 1420 1418 1416 1413 1411 1409 1407 1405 1402 1400 1397 1395 1393 1391 1388 1385 1383 1379 1377 1374 1372 1369 1366 1362 1358 1356 1354
1432 1430 1430 1429 1427 1426 1424 1423 1421 1419 1417 1415 1413 1411 1409 1407 1405 1403 1401 1399 1396 1394 1391 1389 1387 1384 1382 1379 1378 1374 1372 1369 1366 1363 1360 1356 1352 1350
1427 1426 1425 1424 1423 1421 1420 1418 1416 1415 1413 1411 1409 1407 1405 1403 1401 1399 1397 1395 1393 1391 1389 1387 1385 1382 1379 1376 1375 1374 1370 1367 1363 1360 1357 1354 1350 1347
1422 1421 1420 1419 1418 1416 1415 1413 1412 1410 1408 1406 1405 1403 1401 1399 1397 1396 1394 1392 1390 1388 1387 1385 1383 1380 1378 1376 1373 1370 1369 1365 1361 1357 1354 1351 1348 1345
1418 1417 1416 1415 1413 1412 1410 1409 1407 1405 1404 1402 1401 1399 1397 1396 1394 1393 1391 1390 1388 1386 1384 1382 1381 1379 1377 1374 1372 1368 1366 1364 1360 1357 1352 1349 1345 1342
1414 1413 1412 1410 1409 1407 1406 1404 1402 1401 1399 1398 1396 1395 1394 1392 1391 1390 1388 1387 1385 1384 1382 1380 1379 1377 1375 1373 1370 1367 1364 1361 1359 1356 1353 1349 1346 1341
1410 1408 1407 1406 1404 1403 1401 1400 1398 1397 1395 1394 1392 1391 1390 1389 1388 1387 1385 1384 1383 1381 1380 1378 1376 1375 1373 1371 1369 1366 1363 1360 1357 1354 1351 1348 1345 1342